Location: Pella
(41.4080°N, 92.9160°W)
Time: 03:36:22
(UTC-05:00)

ISS - Visible Passes

Search period start: 24 September 2017 00:00
Search period end: 04 October 2017 00:00
Orbit: 401 x 407 km, 51.6° (Epoch: 24 September)

Date Brightness Start Highest point End Pass type
(mag) Time Alt. Az. Time Alt. Az. Time Alt. Az.
24 Sep -1.8 19:44:35 10° SSE 19:46:06 13° SE 19:47:03 11° ESE visible
24 Sep -1.2 21:18:54 10° WSW 21:19:46 17° WSW 21:19:46 17° WSW visible
25 Sep -3.8 20:26:39 10° SW 20:29:52 58° SE 20:30:18 52° ESE visible
26 Sep -2.8 19:34:45 10° SSW 19:37:38 29° SE 19:40:32 10° ENE visible
26 Sep -1.9 21:11:00 10° W 21:13:18 30° WNW 21:13:18 30° WNW visible
27 Sep -3.4 20:18:24 10° WSW 20:21:37 59° NNW 20:23:25 24° NE visible
28 Sep -3.9 19:26:01 10° SW 19:29:16 74° SE 19:32:32 10° ENE visible
28 Sep -1.6 21:03:24 10° WNW 21:06:02 22° NNW 21:06:03 22° NNW visible
29 Sep -2.1 20:10:32 10° W 20:13:29 30° NNW 20:15:54 13° NE visible
30 Sep -3.0 19:17:48 10° WSW 19:20:59 48° NNW 19:24:11 10° NE visible
30 Sep -1.3 20:55:54 10° NW 20:58:03 16° NNW 20:58:17 16° N visible
01 Oct -1.5 20:02:55 10° WNW 20:05:24 20° NNW 20:07:55 10° NNE visible
02 Oct -1.2 20:48:16 10° NW 20:50:05 14° N 20:50:12 14° N visible
03 Oct -1.3 19:55:20 10° NW 19:57:22 15° N 19:59:25 10° NNE visible
